N7NKE Weather Reports


Display with metric or nautical units.
time (UTC)temp
F
wind
direction
speed
MPH
gust
MPH
rain 1hr
in
rain 24hr
in
rain mn
in
humidity
%
barometer
mb
20260502234505 71 7 0.0 2.0 0.00 0.00 0.00 65 1011.3
20260502234005 71 7 1.0 1.0 0.00 0.00 0.00 65 1011.4
20260502233005 71 6 1.0 2.0 0.00 0.00 0.00 63 1011.5
20260502232505 71 25 1.0 1.0 0.00 0.00 0.00 62 1011.6
20260502230505 71 75 2.0 3.0 0.00 0.00 0.00 62 1011.9
20260502230005 71 77 1.0 3.0 0.00 0.00 0.00 61 1012.0
20260502225504 71 9 2.0 2.0 0.00 0.00 0.00 63 1012.0
20260502225005 71 57 1.0 2.0 0.00 0.00 0.00 62 1012.1
20260502223505 71 82 1.0 5.0 0.00 0.00 0.00 61 1012.4
20260502223005 70 16 1.0 3.0 0.00 0.00 0.00 62 1012.5
20260502222504 70 335 3.0 6.0 0.00 0.00 0.00 61 1012.6
20260502222005 70 31 2.0 6.0 0.00 0.00 0.00 64 1012.7
20260502221505 69 359 2.0 5.0 0.00 0.00 0.00 61 1012.7
20260502221005 69 19 1.0 5.0 0.00 0.00 0.00 62 1012.8
20260502220505 69 22 2.0 5.0 0.00 0.00 0.00 63 1012.9
20260502220005 68 39 2.0 6.0 0.00 0.00 0.00 65 1012.9
20260502215505 68 7 3.0 6.0 0.00 0.00 0.00 65 1013.0
20260502215005 67 25 3.0 8.0 0.00 0.00 0.00 66 1013.1
20260502214505 67 3 3.0 6.0 0.00 0.00 0.00 65 1013.2
20260502213005 67 355 2.0 6.0 0.00 0.00 0.00 66 1013.3
20260502212505 66 5 2.0 5.0 0.00 0.00 0.00 67 1013.4
20260502212005 66 6 4.0 9.0 0.00 0.00 0.00 66 1013.4
20260502211506 66 41 5.0 9.0 0.00 0.00 0.00 66 1013.6
20260502211005 66 114 3.0 7.0 0.00 0.00 0.00 67 1013.7
20260502205505 65 14 2.0 3.0 0.00 0.00 0.00 68 1013.8
20260502205005 64 359 2.0 2.0 0.00 0.00 0.00 68 1014.0
20260502204005 63 221 3.0 5.0 0.00 0.00 0.00 69 1014.1
20260502203505 63 339 2.0 7.0 0.00 0.00 0.00 69 1014.2
20260502203005 63 107 2.0 7.0 0.00 0.00 0.00 69 1014.2
20260502202505 63 21 2.0 5.0 0.00 0.00 0.00 70 1014.4
20260502202005 62 77 3.0 6.0 0.00 0.00 0.00 74 1014.3
20260502201505 62 344 2.0 3.0 0.00 0.00 0.00 73 1014.5
20260502200505 61 46 2.0 6.0 0.00 0.00 0.00 74 1014.6
20260502200005 60 341 2.0 5.0 0.00 0.00 0.00 75 1014.7
20260502195005 58 75 4.0 7.0 0.00 0.00 0.00 81 1015.0
20260502194005 57 0 3.0 6.0 0.00 0.00 0.00 82 1015.2
20260502193505 57 0 3.0 6.0 0.00 0.00 0.00 82 1015.4
20260502193005 57 333 3.0 6.0 0.00 0.00 0.00 81 1014.9
20260502192505 57 14 3.0 5.0 0.00 0.00 0.00 80 1015.3
20260502192005 57 25 1.0 5.0 0.00 0.00 0.00 80 1015.2
20260502191505 58 25 2.0 6.0 0.00 0.00 0.00 78 1015.0
20260502191005 58 0 3.0 5.0 0.00 0.00 0.00 78 1015.1
20260502190504 59 30 3.0 8.0 0.00 0.00 0.00 76 1015.5
20260502190006 59 23 4.0 10.0 0.00 0.00 0.00 76 1015.6
20260502185505 59 68 3.0 6.0 0.00 0.00 0.00 77 1015.7
20260502185005 59 357 2.0 6.0 0.00 0.00 0.00 74 1015.6
20260502184505 60 342 2.0 5.0 0.00 0.00 0.00 74 1015.6
20260502183505 60 13 3.0 8.0 0.00 0.00 0.00 72 1015.5
20260502183005 60 13 2.0 5.0 0.00 0.00 0.00 73 1015.6
20260502182505 60 345 2.0 5.0 0.00 0.00 0.00 74 1015.6
20260502182005 59 25 1.0 3.0 0.00 0.00 0.00 72 1015.5
20260502181505 59 324 1.0 3.0 0.00 0.00 0.00 74 1015.7
20260502181005 58 95 2.0 5.0 0.00 0.00 0.00 75 1015.8
20260502170505 54 73 1.0 2.0 0.00 0.00 0.00 81 1016.1
20260502163504 54 6 2.0 5.0 0.00 0.00 0.00 79 1016.3
20260502163005 54 351 1.0 2.0 0.00 0.00 0.00 79 1016.4
20260502162505 54 349 1.0 3.0 0.00 0.00 0.00 78 1016.4
20260502162005 54 356 1.0 2.0 0.00 0.00 0.00 79 1016.5
20260502161505 54 0 2.0 5.0 0.00 0.00 0.00 79 1016.4
20260502161005 54 296 3.0 5.0 0.00 0.00 0.00 79 1016.4
20260502152005 51 0 2.0 6.0 0.00 0.00 0.00 82 1016.2
20260502151505 51 0 2.0 12.0 0.00 0.00 0.00 82 1016.1
20260502151005 51 326 3.0 10.0 0.00 0.00 0.00 82 1015.7
20260502130505 49 329 1.0 2.0 0.00 0.00 0.00 84 1016.2
20260502123505 49 335 1.0 3.0 0.00 0.00 0.00 83 1016.3
20260502123005 49 276 1.0 3.0 0.00 0.00 0.00 84 1016.2
20260502122505 49 315 3.0 8.0 0.00 0.00 0.00 84 1016.2
20260502122005 49 325 2.0 6.0 0.00 0.00 0.00 84 1016.2
20260502121005 49 321 4.0 6.0 0.00 0.00 0.00 84 1016.3
20260502115504 49 330 4.0 8.0 0.00 0.00 0.00 85 1016.1
20260502115005 49 345 5.0 6.0 0.00 0.00 0.00 85 1016.2
20260502114005 49 0 3.0 5.0 0.00 0.00 0.00 85 1016.4
20260502113504 48 0 3.0 5.0 0.00 0.00 0.00 85 1016.5
20260502113005 48 0 2.0 2.0 0.00 0.00 0.00 85 1016.4
20260502112505 49 0 2.0 5.0 0.00 0.00 0.00 85 1016.3
20260502111505 49 0 3.0 3.0 0.00 0.00 0.00 83 1016.1
20260502111005 49 0 2.0 5.0 0.00 0.00 0.00 83 1016.0
20260502110504 49 0 3.0 6.0 0.00 0.00 0.00 83 1015.9
20260502110005 49 0 2.0 3.0 0.00 0.00 0.00 82 1015.8
20260502105504 49 24 2.0 2.0 0.00 0.00 0.00 82 1015.8
20260502105005 49 22 1.0 2.0 0.00 0.00 0.00 82 1016.0
20260502104505 49 85 1.0 2.0 0.00 0.00 0.00 82 1016.1
20260502104005 49 53 1.0 2.0 0.00 0.00 0.00 81 1015.9
20260502103504 49 357 0.0 2.0 0.00 0.00 0.00 81 1015.9
20260502103005 49 348 2.0 2.0 0.00 0.00 0.00 81 1015.9
20260502102505 49 285 0.0 2.0 0.00 0.00 0.00 81 1015.9
20260502102004 49 342 1.0 6.0 0.00 0.00 0.00 82 1015.9
20260502101505 49 348 0.0 2.0 0.00 0.00 0.00 82 1015.9
20260502101004 50 353 1.0 2.0 0.00 0.00 0.00 82 1016.0
20260502100505 50 325 0.0 2.0 0.00 0.00 0.00 82 1016.2
20260502091505 51 327 2.0 3.0 0.00 0.00 0.00 80 1017.0
20260502090505 51 351 2.0 2.0 0.00 0.00 0.00 79 1017.0
20260502071505 54 332 3.0 8.0 0.00 0.00 0.00 70 1016.9
20260502070505 54 343 5.0 8.0 0.00 0.00 0.00 70 1016.8
20260502070005 54 349 5.0 8.0 0.00 0.00 0.00 71 1016.8
20260502065504 54 332 6.0 9.0 0.00 0.00 0.00 72 1016.8
20260502065004 54 332 4.0 6.0 0.00 0.00 0.00 72 1016.9
20260502064505 54 340 5.0 8.0 0.00 0.00 0.00 72 1016.9
20260502064004 54 336 5.0 8.0 0.00 0.00 0.00 72 1016.9
20260502063505 54 321 5.0 8.0 0.00 0.00 0.00 72 1016.9
20260502062504 54 331 3.0 6.0 0.00 0.00 0.00 71 1016.9
20260502062004 54 320 3.0 5.0 0.00 0.00 0.00 70 1016.9
20260502061505 54 291 2.0 5.0 0.00 0.00 0.00 70 1016.9
20260502061005 55 346 2.0 5.0 0.00 0.00 0.00 70 1016.7
20260502060005 55 333 2.0 5.0 0.00 0.00 0.00 69 1016.7
20260502055504 55 13 2.0 3.0 0.00 0.00 0.00 68 1016.7
20260502055005 55 338 2.0 5.0 0.00 0.00 0.00 67 1016.5
20260502054504 56 330 2.0 5.0 0.00 0.00 0.00 66 1016.5
20260502053505 56 0 2.0 5.0 0.00 0.00 0.00 64 1016.5
20260502053005 56 355 2.0 5.0 0.00 0.00 0.00 63 1016.5
20260502051505 57 31 1.0 2.0 0.00 0.00 0.00 61 1016.4
20260502051004 58 31 2.0 5.0 0.00 0.00 0.00 61 1016.3
20260502045504 58 72 0.0 2.0 0.00 0.00 0.00 60 1016.2
20260502044504 59 20 1.0 3.0 0.00 0.00 0.00 59 1016.0
20260502044005 59 34 1.0 2.0 0.00 0.00 0.00 59 1015.9
20260502043504 59 16 1.0 3.0 0.00 0.00 0.00 58 1015.8
20260502043004 59 305 4.0 8.0 0.00 0.00 0.00 58 1015.8
20260502042504 59 352 3.0 5.0 0.00 0.00 0.00 58 1015.7
20260502041504 60 350 2.0 8.0 0.00 0.00 0.00 57 1015.6
20260502041004 60 334 3.0 8.0 0.00 0.00 0.00 56 1015.5
20260502040504 60 322 5.0 9.0 0.00 0.00 0.00 56 1015.4
20260502035504 60 324 5.0 8.0 0.00 0.00 0.00 55 1015.4
20260502035004 60 322 3.0 13.0 0.00 0.00 0.00 55 1015.3
20260502034504 61 330 5.0 8.0 0.00 0.00 0.00 54 1015.3
20260502034004 61 322 5.0 7.0 0.00 0.00 0.00 54 1015.3
20260502033504 61 327 7.0 13.0 0.00 0.00 0.00 54 1015.2
20260502033006 61 332 6.0 12.0 0.00 0.00 0.00 54 1015.1
20260502032505 61 335 6.0 10.0 0.00 0.00 0.00 54 1015.1
20260502032005 62 338 4.0 9.0 0.00 0.00 0.00 54 1015.0
20260502031504 62 346 6.0 14.0 0.00 0.00 0.00 54 1015.0
20260502031005 62 336 7.0 10.0 0.00 0.00 0.00 54 1014.9
20260502024505 63 328 8.0 12.0 0.00 0.00 0.00 55 1014.6
20260502024004 63 337 9.0 12.0 0.00 0.00 0.00 55 1014.6
20260502023504 64 326 8.0 12.0 0.00 0.00 0.00 56 1014.5
20260502023005 64 336 7.0 12.0 0.00 0.00 0.00 57 1014.4
20260502022004 65 333 6.0 10.0 0.00 0.00 0.00 60 1014.2
20260502021505 65 333 6.0 9.0 0.00 0.00 0.00 59 1014.1
20260502021004 65 339 6.0 9.0 0.00 0.00 0.00 59 1014.1
20260502020504 66 333 8.0 12.0 0.00 0.00 0.00 58 1014.2
20260502020005 66 340 7.0 12.0 0.00 0.00 0.00 57 1014.1
20260502015004 67 334 6.0 14.0 0.00 0.00 0.00 58 1014.2
20260502014505 67 336 6.0 13.0 0.00 0.00 0.00 58 1014.1
20260502013004 68 329 7.0 13.0 0.00 0.00 0.00 57 1014.1
20260502012504 69 336 6.0 9.0 0.00 0.00 0.00 57 1014.1
20260502012004 69 338 5.0 9.0 0.00 0.00 0.00 56 1014.1
20260502011505 69 341 6.0 12.0 0.00 0.00 0.00 56 1014.1
20260502011005 69 330 7.0 10.0 0.00 0.00 0.00 56 1014.1
20260502010505 69 334 7.0 12.0 0.00 0.00 0.00 56 1014.1
20260502010004 70 336 7.0 13.0 0.00 0.00 0.00 54 1014.1
20260502005505 70 331 7.0 12.0 0.00 0.00 0.00 54 1014.1
20260502005004 71 344 5.0 12.0 0.00 0.00 0.00 55 1014.0
20260502004504 71 327 7.0 10.0 0.00 0.00 0.00 53 1014.0
20260502004005 71 331 6.0 12.0 0.00 0.00 0.00 53 1014.0
20260502003505 71 334 5.0 9.0 0.00 0.00 0.00 54 1014.0
20260502002505 71 335 5.0 10.0 0.00 0.00 0.00 55 1014.0
20260502002004 72 335 5.0 12.0 0.00 0.00 0.00 53 1013.9
20260502001505 72 328 6.0 10.0 0.00 0.00 0.00 54 1013.9
20260502001005 72 344 6.0 14.0 0.00 0.00 0.00 52 1013.8
20260502000504 73 351 5.0 9.0 0.00 0.00 0.00 52 1013.8
20260502000004 74 341 5.0 8.0 0.00 0.00 0.00 52 1013.7
20260501235504 74 341 2.0 5.0 0.00 0.00 0.00 50 1013.7